Погода в Шуманае

Узбекистан     42˚38′07″N   58˚55′27″E
темп.,
°C
ветер,
м/с
пор.,
м/с
влажн.,
%
обл.,
%
осадки,
мм/ч
давл.,
гПа
погр.,
м
6 декабря, вс
вс623:00−9˚в34770 0.0 103543
02:00−10˚в34650 0.0 103537
05:00−11˚в34610 0.0 103528
08:00−11˚в34650 0.0 103636
11:00−5˚всв46440 0.0 1036327
14:00всв56410 0.0 1035769
17:00−2˚всв57450 0.0 1034240
20:00−8˚всв57720 0.0 103598
7 декабря, пн
пн723:00−10˚всв44790 0.0 103666
02:00−12˚всв34620 0.0 103549
05:00−12˚всв34690 0.0 103539
08:00−13˚всв34740 0.0 103628
11:00−7˚св46450 0.0 1037342
14:00−1˚св57420 0.0 1036728
17:00−3˚св47560 0.0 1035200
20:00−9˚всв34730 0.0 103638
8 декабря, вт
вт823:00−10˚всв34580 0.0 103629
02:00−12˚в33610 0.0 103623
05:00−12˚всв33620 0.0 103623
08:00−13˚всв34660 0.0 103728
11:00−6˚всв45390 0.0 1038284
14:00−1˚всв45260 0.0 1037617
17:00−3˚всв45290 0.0 103680
20:00−9˚в45490 0.0 103736
9 декабря, ср
ср923:00−10˚всв45580 0.0 103748
02:00−11˚всв34730 0.0 103733
05:00−12˚всв34810 0.0 103633
08:00−12˚всв34840 0.0 103737
11:00−5˚всв45520 0.0 1036270
14:00всв45330 0.0 1035642
17:00−1˚всв45480 0.0 103488
20:00−7˚всв45720 0.0 103467
10 декабря, чт
чт1023:00−9˚всв34760 0.0 103336
02:00−10˚всв34800 0.0 103328
05:00−11˚св34800 0.0 103322
08:00−11˚всв34820 0.0 103424
11:00−4˚всв35570 0.0 1035310
14:00+1˚всв44380 0.0 1034628
17:00−1˚св34400 0.0 103453
20:00−7˚всв45670 0.0 103439